Aérodrome :
LOGIN :

S'inscrire | Disclaimer

   EN    FR    IT 

 










Légende :    VFR   VFR Marginal   IFR   IFR Intensif   IFR Très Intensif
Visi : 
Plafond : 
>= 8 km
>= 3000ft
5 à 8 km
1000 à 3000 ft
1500m à 5 km
500 à 1000 ft
800 à 1500m
200 à 500 ft
< 800m
< 200 ft
Symboles :   Orages  Brouillard  Fortes neiges  Fortes précipitations  Vent > 20 kt
SIGMETs :   Divers  Orages  Givrage  Turbulence  Onde Orograph.  Cendres Volcan.






- Altitude de l'aérodrome : 270 ft
- Code IATA : OXF


EGTK - Oxford (Kidlington)

DERNIER METAR :
  • 280650Z 25012KT CAVOK 01/01 Q0992

METARs EXPIRÉS :
  • 280620Z 25010KT CAVOK 01/01 Q0992

TAF TAF EGTK
Valide du 28 à 06h jusqu'au 28 à 15h UTC


280656Z 2806/2815 25010KT 9999 FEW025
PROB40
TEMPO 2812/2815 26015G25KT
PROB30
TEMPO 2812/2815 8000 -SHRA



MET'MAP, la Météo Aéronautique d'un coup d'oeil ! - Copyright ORBIFLY Décembre 2007 - Disclaimer

ORBIFLY MET'MAP TEAM :

Programmation & Développement : Alexandra Zaïnal
Sur une idée originale de : Baudouin d'Aumeries
Assistance à la programmation : Marc-Olivier Méhu
Soutien technique & logistique : Manuel Goepfert

Contact : metmap@orbifly.com




SOURCES & CREDITS :

   NOAA